Theta_e
309 312 316 316 315 317 319 320 321 318 319 318 321 322 323 322 322 322 322 322 322 322 324 324 325 325 324 323 322 322 322 322 324 324 317 319 326 325 326 326 326 327 328 328
310 313 315 316 316 314 315 316 318 318 318 320 322 322 322 322 322 321 322 323 324 325 324 325 325 323 321 322 322 322 322 323 324 319 319 325 324 325 325 325 326 327 327 327
313 314 313 314 316 316 316 317 317 319 321 320 321 322 322 322 322 321 321 324 324 324 324 324 324 322 321 321 322 323 324 324 320 318 324 323 325 324 323 325 326 327 326 326
312 313 313 313 315 317 318 318 318 318 319 323 321 325 323 322 322 323 323 325 325 323 322 323 324 323 321 322 323 325 324 321 319 324 324 324 325 324 323 325 326 325 326 326
311 311 312 313 314 316 317 318 318 318 320 321 322 322 322 323 322 323 322 324 326 322 322 323 324 323 322 324 325 324 322 320 322 325 326 324 325 325 324 323 327 327 327 326
313 311 312 314 314 316 317 319 320 320 321 323 323 322 323 321 322 322 323 325 323 324 324 324 324 323 324 325 325 323 321 320 325 325 326 324 325 325 325 324 327 326 327 326
312 312 312 312 313 316 319 319 321 322 323 326 321 321 322 322 322 323 325 326 324 324 325 325 324 326 325 325 323 322 322 322 323 327 326 324 326 326 325 325 326 326 327 325
314 314 313 313 313 316 319 321 322 323 322 322 320 319 319 322 322 321 324 324 324 325 325 325 326 327 325 324 324 322 321 321 325 326 326 325 326 326 325 325 326 325 326 325
316 316 315 313 314 315 318 319 319 320 321 321 321 322 324 325 325 325 324 324 326 327 326 326 326 325 325 324 323 322 320 323 325 327 325 327 327 326 325 326 326 326 325 325
314 317 316 314 314 316 318 318 317 319 318 318 321 325 323 326 327 327 327 326 326 326 326 326 326 325 325 325 324 321 323 325 326 326 326 327 327 326 325 326 326 326 326 324
313 315 316 315 314 315 316 318 318 318 318 317 319 322 328 328 328 329 330 327 326 326 326 326 326 325 325 325 323 320 324 325 326 326 326 327 327 326 325 326 324 325 326 324
312 317 318 316 315 315 315 317 318 318 319 318 321 321 324 327 326 328 328 326 326 327 326 326 326 325 325 324 323 321 324 325 325 325 326 326 326 326 326 326 325 326 326 325
312 316 318 317 316 316 316 316 318 318 319 318 318 321 323 324 325 324 328 326 326 327 326 326 326 325 326 324 322 322 325 326 325 325 325 326 326 326 326 325 325 326 326 325
310 312 317 318 317 318 316 316 316 317 318 318 318 318 322 323 326 327 326 326 327 327 326 326 326 326 326 324 322 322 324 325 325 323 323 325 325 326 326 325 326 325 325 326
310 312 312 313 313 315 318 316 316 316 317 318 317 318 321 322 325 327 326 326 327 327 327 326 326 326 326 324 322 322 324 325 324 322 323 324 325 326 327 326 328 325 325 325
310 313 312 315 314 315 317 318 316 316 316 317 319 321 320 322 324 326 326 326 327 327 327 327 326 326 327 324 322 322 324 324 324 322 322 324 327 325 327 327 328 327 324 325
311 312 313 316 313 316 318 318 319 317 317 317 318 319 320 322 325 327 327 327 328 328 328 327 326 326 327 323 322 322 324 323 324 322 321 325 326 324 326 328 327 328 328 326
311 311 312 314 317 318 319 320 319 318 318 318 318 319 320 320 321 325 327 327 328 328 328 327 326 326 327 323 322 322 323 322 324 323 321 323 326 324 325 325 325 328 328 328
310 311 314 314 319 319 322 321 320 320 320 320 323 319 319 320 323 324 326 325 328 326 328 327 327 327 327 323 322 323 322 323 323 324 321 320 323 324 323 322 321 327 328 328
310 310 313 314 317 319 321 319 316 319 322 317 318 321 325 325 321 323 324 323 326 326 327 327 327 327 327 324 323 322 322 323 323 324 321 319 324 321 322 321 321 328 328 327
312 312 313 315 316 318 318 317 316 323 321 315 316 317 319 325 323 325 324 328 326 326 327 328 327 327 326 324 324 322 321 323 322 323 322 319 321 323 320 319 321 328 328 327
314 314 313 314 316 320 315 318 319 316 314 314 315 315 317 318 319 321 324 324 328 327 327 328 327 327 326 325 324 322 321 321 322 323 323 320 319 324 321 319 318 327 327 327
315 315 316 316 317 316 314 315 316 314 313 314 314 315 316 318 321 322 325 325 327 327 327 329 328 327 326 325 325 324 320 321 322 323 324 320 318 323 325 320 317 321 323 326
312 311 315 315 315 314 313 313 312 312 313 313 314 314 317 319 325 327 328 326 325 326 327 328 328 327 326 325 325 324 323 320 321 323 324 321 318 319 324 325 321 316 319 319
309 310 313 313 314 313 314 312 311 312 312 313 314 316 318 322 324 326 326 326 324 325 327 328 329 328 326 324 324 325 325 321 320 322 323 322 318 318 319 322 323 320 315 317
310 312 313 314 312 311 311 311 311 312 313 313 313 316 320 323 325 326 326 324 323 325 325 326 329 328 327 325 325 325 325 324 320 321 322 323 319 319 316 317 321 320 318 315
Wind_Speed
25 12 26 30 29 15 17 21 21 14 9 7 13 18 15 24 25 25 27 30 31 34 31 29 19 15 15 18 22 26 32 30 24 19 16 14 10 10 12 14 15 15 15 14
11 28 32 26 19 23 24 22 23 14 12 9 16 22 18 18 23 21 24 28 26 25 21 17 13 13 15 16 22 30 31 25 19 16 13 9 8 9 9 11 11 10 10 12
26 39 23 22 26 25 28 29 23 20 5 9 9 18 20 23 16 21 27 25 25 21 14 11 10 10 12 18 26 31 26 20 16 13 10 8 7 5 7 8 7 6 8 9
22 27 21 23 28 23 27 23 23 19 9 13 2 19 16 21 21 18 24 20 20 15 14 9 8 10 14 21 29 26 21 17 14 12 9 6 4 3 5 6 6 7 7 6
19 18 23 26 28 27 21 14 19 16 7 12 19 13 16 7 17 22 20 19 10 6 6 7 9 11 18 28 28 23 19 15 14 11 7 4 2 3 6 7 7 6 6 5
19 13 25 27 16 22 15 11 11 9 11 17 19 14 21 14 21 17 14 15 5 4 2 9 13 19 28 29 25 21 17 15 13 10 5 3 2 3 6 8 7 5 3 5
17 17 5 14 23 21 20 15 7 8 9 13 11 13 19 10 18 17 16 10 4 2 8 15 21 28 33 29 24 20 17 15 13 10 4 2 1 3 6 8 6 2 2 6
15 11 21 17 16 18 28 23 11 11 9 9 15 10 9 19 27 26 23 10 6 8 14 19 24 27 31 27 23 18 15 14 12 9 3 2 1 3 6 5 5 4 3 8
12 15 14 19 13 24 24 18 18 14 1 3 5 6 12 16 12 12 18 13 11 14 19 22 26 30 29 25 21 17 14 13 12 9 4 3 1 4 5 3 4 2 4 9
7 7 13 16 21 25 19 23 12 10 13 8 5 5 10 9 14 10 9 12 13 16 20 24 28 31 28 22 19 16 13 12 11 7 5 3 1 2 5 3 2 3 5 9
11 7 12 18 19 23 11 22 7 10 6 6 3 5 8 16 15 14 11 14 19 21 24 27 28 30 26 22 20 16 15 13 11 7 5 3 1 1 4 2 2 3 5 8
6 6 5 24 11 19 22 19 21 11 8 8 2 5 1 9 1 3 9 13 19 21 23 26 27 30 27 24 21 17 16 13 9 6 6 4 1 0 4 4 4 4 6 8
7 6 10 9 6 13 27 20 22 6 4 14 10 2 1 2 2 4 8 15 18 21 23 25 26 29 27 25 22 18 16 13 9 7 6 5 2 1 3 6 6 6 9 9
8 4 9 10 8 2 22 24 21 19 12 10 16 11 15 8 6 2 7 17 18 21 24 26 27 28 26 25 22 17 16 14 11 8 7 6 4 3 6 7 9 7 9 9
3 3 4 14 12 7 3 21 24 24 20 15 11 22 22 14 10 0 7 17 20 22 24 27 29 28 27 26 23 18 17 16 13 9 7 6 7 5 6 6 8 9 10 11
1 3 8 8 7 8 8 6 19 23 23 19 11 17 18 12 3 5 12 19 23 24 25 27 29 30 30 27 25 21 19 18 15 11 8 9 9 8 7 8 7 9 10 10
2 2 4 13 4 5 9 14 11 14 21 20 18 16 6 9 9 9 16 22 27 26 27 30 33 34 32 28 26 24 21 20 17 13 10 11 10 9 8 8 8 8 7 7
4 1 2 3 2 9 3 11 13 14 10 23 22 14 16 19 24 12 14 26 26 25 26 28 32 35 32 26 26 24 22 21 19 16 12 13 12 10 10 10 8 8 9 8
14 3 2 2 6 3 5 10 6 5 9 10 6 18 20 18 14 20 15 21 28 34 31 31 32 34 32 28 27 27 24 22 21 19 15 14 13 12 11 10 7 9 10 12
13 9 4 1 4 10 6 14 8 1 8 13 11 9 10 12 11 15 16 22 27 26 28 30 30 34 33 30 29 29 27 24 24 21 18 15 16 13 12 10 9 11 13 14
7 3 9 5 3 2 10 17 2 10 2 18 15 13 13 7 14 18 15 15 30 28 30 28 30 35 35 33 32 31 29 27 24 21 20 17 17 15 13 12 11 12 14 14
4 7 5 4 4 3 20 5 3 6 11 16 16 16 18 20 27 26 21 14 20 30 29 30 32 35 36 35 33 32 32 26 25 23 22 20 18 19 16 14 13 14 14 15
2 1 2 4 1 8 9 9 6 8 13 17 19 20 20 22 25 23 22 16 18 26 32 32 35 36 37 37 35 34 29 29 28 25 24 22 19 21 19 17 15 16 15 16
1 1 3 3 4 8 11 6 11 13 15 20 19 20 19 21 21 21 21 19 16 24 30 34 37 38 39 39 36 31 31 29 30 28 26 25 22 23 22 20 18 17 18 18
3 3 2 4 5 11 5 16 20 23 21 24 24 20 18 18 21 19 20 20 19 24 27 36 39 41 43 40 35 34 34 33 32 30 28 28 26 23 25 23 22 20 18 19
3 4 2 2 5 5 14 20 24 20 26 26 28 29 23 17 20 19 18 18 20 25 30 34 39 42 43 42 40 35 35 35 34 33 31 31 30 27 26 26 24 22 19 17
Wind_Direction
189 198 220 211 214 234 257 238 238 228 226 254 260 276 280 288 292 282 285 283 281 283 293 295 288 274 265 245 227 211 205 193 196 213 226 233 248 265 277 280 275 268 262 270
174 221 222 222 211 222 235 240 238 241 248 240 274 282 288 280 273 278 288 286 279 285 295 289 281 262 235 225 207 198 187 187 198 212 217 225 245 267 283 287 284 271 266 269
195 224 216 213 217 217 225 231 235 243 214 242 281 281 279 277 274 295 288 276 280 278 288 282 276 244 218 204 192 179 178 186 197 203 205 220 249 278 300 306 296 271 273 286
226 226 204 207 219 211 234 228 242 240 234 251 232 281 275 287 286 284 283 283 279 289 259 268 247 215 198 184 174 174 177 186 191 192 194 218 236 285 319 326 303 276 283 285
215 204 199 205 208 201 229 215 222 227 241 275 258 268 280 264 280 277 275 270 278 256 257 240 203 183 173 172 169 173 179 180 185 180 193 203 224 314 334 338 317 294 278 258
228 211 199 212 201 201 201 196 176 197 234 243 245 247 270 254 255 264 266 260 271 322 246 175 165 161 162 167 171 176 176 182 180 183 183 202 270 318 334 338 329 325 274 198
215 221 197 197 205 194 191 191 186 208 211 246 229 220 249 254 249 246 264 263 234 219 169 163 162 159 164 169 175 174 178 181 180 179 176 191 274 337 336 342 351 328 192 173
205 196 211 192 197 188 190 181 198 211 224 228 214 226 251 228 240 237 241 260 218 186 169 166 164 165 167 173 174 175 178 178 180 176 173 160 91 350 357 351 17 51 139 164
219 224 184 186 184 186 199 207 217 230 37 233 204 236 273 246 249 225 231 222 202 180 170 166 168 169 173 175 175 174 171 172 175 169 163 136 108 8 3 6 30 94 109 156
280 233 207 186 189 193 190 182 187 210 218 227 228 233 238 229 237 220 213 201 177 172 166 167 171 174 177 175 172 167 165 166 169 164 162 141 124 7 12 27 69 96 129 160
266 279 177 175 198 186 179 189 197 204 226 209 234 227 220 229 217 214 213 183 170 170 171 169 174 178 177 176 171 167 166 166 167 163 178 156 172 1 10 46 87 107 144 162
303 288 220 203 189 192 199 192 192 199 184 216 241 250 339 247 246 192 148 155 165 168 165 171 175 178 179 177 174 173 172 170 166 173 186 165 183 19 16 117 113 109 138 155
344 235 219 153 179 203 202 200 199 201 171 201 200 216 113 235 207 204 138 147 159 157 164 172 177 180 181 179 178 176 173 176 178 188 183 173 174 101 56 117 103 105 126 137
323 265 258 208 190 229 208 206 200 204 212 190 214 226 258 282 295 152 156 156 161 167 171 175 179 182 184 182 178 176 176 181 187 186 173 176 165 116 114 124 102 106 118 126
26 272 299 285 280 293 299 210 206 209 214 219 202 222 248 270 306 316 173 159 163 171 175 180 181 184 186 183 180 179 182 184 189 181 172 178 159 129 119 138 110 120 122 128
162 329 328 257 232 255 261 237 222 213 211 218 219 240 235 237 213 175 165 178 177 180 180 183 185 188 188 186 183 184 185 184 190 183 174 170 153 135 117 130 123 121 123 128
286 5 324 216 7 297 258 231 211 219 220 218 229 229 250 273 253 209 183 201 188 185 183 186 189 190 190 189 186 189 185 184 191 185 176 169 160 143 135 121 135 131 132 133
253 261 299 287 280 225 92 30 197 206 220 228 240 255 252 255 265 277 213 205 200 187 186 188 190 193 191 189 188 191 187 186 194 189 182 176 169 161 141 129 126 129 138 133
218 236 256 244 224 326 90 27 356 229 186 21 308 253 254 273 288 270 230 224 215 199 200 198 193 192 189 189 186 192 189 190 195 194 190 184 176 174 159 142 130 134 136 128
199 223 265 248 227 211 48 346 331 247 179 7 354 330 320 312 247 258 256 243 222 208 199 196 191 192 190 189 187 193 192 192 196 197 196 190 182 178 171 158 144 142 136 135
174 185 224 225 263 289 349 328 191 186 33 341 336 322 311 284 237 282 311 272 224 205 196 196 190 192 189 189 188 194 195 194 192 196 199 195 187 178 175 165 154 150 146 146
167 169 188 199 228 239 359 12 55 338 329 334 327 317 305 291 285 289 286 296 221 199 191 193 190 192 192 192 191 195 199 191 189 193 200 197 190 184 182 175 165 159 155 153
187 262 159 230 27 347 331 319 330 339 332 331 324 318 310 300 291 288 275 273 239 212 192 191 193 190 193 194 196 198 195 194 191 194 200 199 195 191 189 185 178 170 165 162
141 125 264 273 73 325 328 32 359 347 340 336 329 323 315 304 299 289 275 262 238 215 202 192 190 193 193 194 198 204 198 193 193 197 200 200 199 196 195 194 192 187 181 176
315 328 342 280 308 336 127 343 344 341 344 344 343 338 324 315 305 294 276 252 232 220 205 197 196 196 197 193 194 202 202 196 195 198 201 201 201 200 199 200 199 199 199 195
291 351 310 342 346 303 287 313 321 327 334 337 341 342 341 329 314 303 284 247 225 214 210 206 203 200 198 195 197 198 202 200 197 196 201 203 202 201 202 203 202 204 203 201